C/2019 F2 ( ATLAS )

Japanese version
Home page
Updated on May 23, 2019

---------------------------------------------------------------------

* Profile

Discovery Date March 26, 2019
Magnitude 17.5 mag
Discoverer Asteroid Terrestrial-Impact Last Alert System (ATLAS) search program

* Pictures

* Orbital Elements

Epoch 2019 Aug. 25.0 TT = JDT 2458720.5
T 2019 Sept. 8.90458 TT                                 MPCW
q   2.2327650            (2000.0)            P               Q
n   0.01465665     Peri.   10.95862     -0.99214503     +0.12283326
a  16.5365988      Node   175.87032     -0.12428238     -0.98941510
e   0.8649804      Incl.   19.18817     +0.01421692     -0.07726415
P  67.25
From 558 observations 2019 Feb. 26-May 13, mean residual 0".4.

* Finding Charts

* Magnitudes Graph

        m1 = 11.0 + 5 log d + 10.0 log r

---------------------------------------------------------------------

The orbital elements are published on M.P.E.C. 2019-J142.
The charts are made with StellaNavigator Ver.10 (AstroArts).
The magnitudes graphs are made with Comet for Windows.

---------------------------------------------------------------------

Copyright(C) Seiichi Yoshida (comet@aerith.net). All rights reserved.